Regional Weather Roundup
Issued by NWS

Home | Current Version | Previous Version | Graphics & Text | Print | Product List | Glossary On
Versions: 1 2 3 4 5 6 7 8 9 10 11 12 13 14 15 16 17 18 19 20 21 22 23 24 25 26 27 28 29 30 31 32 33 34 35 36 37 38 39 40 41 42 43 44 45 46 47 48 49 50
000
ASUS43 KMKX 020500
RWRWI

WISCONSIN REGIONAL WEATHER ROUNDUP
NATIONAL WEATHER SERVICE MILWAUKEE/SULLIVAN WI
1200 AM CDT SAT AUG 02 2014

NOTE: "FAIR" INDICATES FEW OR NO CLOUDS BELOW 12,000 FEET WITH NO
SIGNIFICANT WEATHER AND/OR OBSTRUCTIONS TO VISIBILITY.

WIZ001-002-006>008-014>016-023>028-020600-
NORTHWEST WISCONSIN

CITY           SKY/WX    TMP DP  RH WIND       PRES   REMARKS
SUPERIOR ARPT  CLEAR     54  52  93 NE5       30.10S
ASHLAND        MOCLDY    57  56  96 CALM      30.11S
HAYWARD        CLEAR     60  57  89 CALM      30.11S
SIREN          CLEAR     62  60  92 CALM      30.09R
RICE LAKE      CLEAR     61  59  93 CALM      30.12R FOG
LADYSMITH      CLEAR     62  57  83 E3        30.13S
EAU CLAIRE     NOT AVBL
MENOMONIE      CLEAR     65  61  87 CALM      30.09S
NEW RICHMOND   CLEAR     65  60  84 E3        30.09S
OSCEOLA        CLEAR     66  62  84 CALM      30.10F
$$

WIZ003>005-009-010-017-018-020600-
NORTH CENTRAL WISCONSIN

CITY           SKY/WX    TMP DP  RH WIND       PRES   REMARKS
WOODRUFF       CLEAR     55  45  71 CALM      30.14R
RHINELANDER    CLEAR     54  52  93 N3        30.14S
EAGLE RIVER    PTCLDY    52  52 100 CALM      30.14R FOG
LAND O LAKES     N/A     50  50 100 CALM      30.15S FOG
PHILLIPS       PTCLDY    55  55  98 CALM      30.13R
TOMAHAWK         N/A     52  50  95 CALM      30.13S FOG
MEDFORD        CLEAR     57  57  99 CALM      30.12F FOG
MERRILL        CLEAR     58  58  99 CALM      30.12S FOG
$$

WIZ029-030-035-036-043>047-020600-
CENTRAL WISCONSIN

CITY           SKY/WX    TMP DP  RH WIND       PRES   REMARKS
WAUSAU         CLEAR     61  60  97 CALM      30.11R FOG
MOSINEE        CLEAR     59  59 100 CALM      30.13S
MARSHFIELD     CLEAR     59  57  93 CALM      30.11S FOG
STEVENS POINT  CLEAR     56  55  94 CALM      30.13R
WAUPACA        CLEAR     59  55  89 CALM      30.12S
WAUTOMA        NOT AVBL
WISC RAPIDS    CLEAR     58  56  93 NE3       30.13R
CAMP DOUGLAS   CLEAR     55  55 100 E2        30.11R FOG
$$

WIZ011>013-019>022-031-037>040-048>050-020600-
NORTHEAST WISCONSIN

CITY           SKY/WX    TMP DP  RH WIND       PRES   REMARKS
ANTIGO         CLEAR     56  55  97 CALM      30.13S
STURGEON BAY   CLEAR     61  57  88 E7        30.10R
GREEN BAY      CLEAR     63  60  90 W8        30.09S
MANITOWOC      NOT AVBL
APPLETON       CLEAR     59  55  88 W6        30.11S
CLINTONVILLE   CLEAR     57  55  94 CALM      30.11R
OSHKOSH        CLEAR     61  59  93 W3        30.11R FOG
$$

WIZ032>034-041-042-053>061-020600-
SOUTHWEST WISCONSIN

CITY           SKY/WX    TMP DP  RH WIND       PRES   REMARKS
LA CROSSE      PTCLDY    68  56  65 SE6       30.09S
SPARTA         CLEAR     60  56  85 CALM      30.12R
VIROQUA        FAIR      65  53  65 S5        30.13R
BOSCOBEL       PTCLDY    61  55  81 CALM      30.11R
PRAIRIE DU CHI CLEAR     65  53  64 CALM      30.11S
PLATTEVILLE    FAIR      64  55  73 SE8       30.13F
$$

WIZ056-057-062-063-064-067-068-020600-
SOUTH CENTRAL WISCONSIN

CITY           SKY/WX    TMP DP  RH WIND       PRES   REMARKS
BARABOO/DELLS  PTCLDY    59  55  88 CALM      30.12R
LONE ROCK      NOT AVBL
WATERTOWN      CLEAR     59  58  96 CALM      30.11R
MADISON        PTCLDY    65  58  78 SW6       30.12R
MIDDLETON      FAIR      64  57  76 SW6       30.13S
MONROE         MOCLDY    63  57  82 S10       30.11F
JANESVILLE     MOCLDY    63  54  72 CALM      30.10F
$$

WIZ051-052-058>065-066-070>072-020600-
SOUTHEAST WISCONSIN

CITY           SKY/WX    TMP DP  RH WIND       PRES   REMARKS
MILWAUKEE      PTCLDY    62  55  77 NW3       30.08F
WAUKESHA       PTCLDY    59  54  82 CALM      30.11S
MILWAUKEE/TIMM PTCLDY    59  54  82 NW5       30.11S
RACINE         MOCLDY    60  56  86 CALM      30.10S
BURLINGTON     MOCLDY    56  55  97 N3        30.09F
KENOSHA        MOCLDY    58  56  93 E5        30.08S
FOND DU LAC    CLEAR     57  55  93 CALM      30.11S
SHEBOYGAN      CLEAR     59  56  89 W5        30.10S
WEST BEND      CLEAR     59  54  82 CALM      30.10S
JUNEAU         CLEAR     60  53  78 W3        30.12S
$$

LSZ147-162-020600-
LAKE SUPERIOR

STATION/POSITION TIME  TEMP    WIND        PRES    WAVE
                       AIR SEA DIR/SP/G            HT/PER
                 (UTC) (F)     (DEG/KT/KT) (MB)    (FT/S)
W MID LAKE BUOY  0350   49 47   10/  4/  6 1019.6R   0
PORT WING        0440   59      40/  2/  5 1019.3R
SAXON HARBOR     0440             CALM     1019.0S
$$

LMZ867-665-643>646-020600-
LAKE MICHIGAN

STATION/POSITION TIME  TEMP    WIND        PRES    WAVE
                       AIR SEA DIR/SP/G            HT/PER
                 (UTC) (F)     (DEG/KT/KT) (MB)    (FT/S)
N MID LAKE BUOY  0350   63 60   CALM  /  2 1018.8F   0
NORTHPORT PIER   0400   63      80/  4/  6 1019.0F
SISTER BAY       0411   62     100/  6/  9   N/A
ALGOMA LAKESHORE 0451             CALM       N/A
KEWAUNEE LAKESHO 0400   59        CALM     1017.8F
SHEBOYGAN LAKESH 0400   69     240/  4/  5 1018.8R
PORT WASHINGTON  0400   67     270/  9/ 12 1019.3
ATWATER BUOY     0400   66     210/  6     1019.8R
MILWAUKEE LAKESH 0400   69     230/  8/  9   N/A
S MID LAKE BUOY  0350   66 65  240/  4/  6 1019.1S   0
KENOSHA   LAKESH 0400   65     170/  6/  7 1018.6R
$$

TC  - TEMPERATURE IN CELSIUS
VSB - VISIBILITY IN STATUTE MILES
WCI - WIND CHILL INDEX
HX  - HEAT INDEX




USA.gov is the U.S. government's official web portal to all federal, state and local government web resources and services.